Location: Unspecified
(49.9820°N, 20.4363°E)
Time: 06:53:36
(UTC+02:00)

Tiros 1 despin weight - Visible Passes

Search period start: 14 May 2026 00:00
Search period end: 24 May 2026 00:00
Orbit: 555 x 591 km, 48.2° (Epoch: 12 May)

Date Brightness Start Highest point End Pass type
(mag) Time Alt. Az. Time Alt. Az. Time Alt. Az.
20 May ? 02:54:52 10° SSE 02:56:22 12° SE 02:57:51 10° ESE visible
21 May ? 02:56:01 13° S 02:57:53 17° SE 03:00:35 10° ESE visible
22 May ? 02:57:27 16° S 02:59:27 22° SSE 03:02:47 10° E visible
23 May ? 02:58:49 19° SSW 03:01:03 29° SSE 03:04:45 10° E visible
